Карточка аэропорта UHPP

Внимание!
Информация на этой странице в стадии наполнения.
Если вы не увидели какой-то информации, или заметили неточность - пожалуйста сообщите нам!
Спасибо!
Команда RU-STAFF
Название аэропортаЕлизово
Название аэропорта (англ.)Yelizovo
Превышение131 ft. (39.9 m.)
Координаты53°10.2', 158°27.6'
Высота перехода2400m
Эшелон переходаQFE > 759 mmHg - FL090; 729 mmHg < QFE < 759 mmHg - FL100; QFE < 729 mmHg - FL110
Коды ответчика6630-6657
Зона ОрВДМагадан РПИ (UHMM)
Данные METARUHPP 271000Z 02004MPS CAVOK M15/M24 Q1034 R34L/CLRD60 NOSIG RMK QFE771/1029
Проноз погоды (TAF)UHPP 270730Z 2709/2815 34003G10MPS 9999 SCT050 TXM05/2805Z TNM21/2721Z BECMG 2800/2802 04006G16MPS TEMPO 2802/2806 30010G20MPS TEMPO 2806/2815 30015G28MPS 3000 -SHSN BLSN VV005
NOTAMshow/hide NOTAM
AWOS   TABLE

Информация о ВПП

ВПП Длина ВПП (м.) Покрытие Курс ВПП Частота ILS
34L2500Бетон344108.7
16R2500Бетон164109.9

Диспетчерские позиции

Позывной Наименование органа УВД Частота
UHPP_ATISПетропавловск - АТИС126.800
UHPP_R_APPПетропавловск - Круг119.400
UHPP_GNDПетропавловск - Руление127.000
UHPP_TWRПетропавловск - Старт118.100



Спутниковое изображение